ATLAS 5 CENTAUR DEB, 44645

Orbit data source: Space-Track

ATLAS 5 CENTAUR DEB, 44645 is space debris in HEO originally from a launch on Wed, 17 Oct 2018 UTC launched from the Air Force Eastern Test Range (AFETR). Debris objects in space refer to the collection of defunct objects orbiting the Earth. Examples of debris include non-operational satellites, rocket bodies, and fragments generated from explosions, collisions, or faulty payload assembly.

Loading next visibility...
Identifier
44645, 2018-079F
Orbit
HEO
Country
Flag of USUS
Related business
Flag of USUnited Launch Alliance/Lockheed Martin (US)
Manufacturer
ULA Decatur
Mission
Spacecraft
Bus & Motor
Unknown
Mass
Unknown
Launch date (UTC)
2018-10-17 (7 years ago)
Launch vehicle
Unknown
Launch site
Air Force Eastern Test Range (AFETR)
Object type
Payload
Rocket body
Debris
Shape & HBR
Unknown shape, 1.1 m
Radar Cross Section
RCS unknown

Expand to show TLE details & history
Last TLE update: 3 days ago

TLE from 3 days ago
0 ATLAS 5 CENTAUR DEB
1 44645U 18079F   25338.43959744 -.00000071  00000-0  00000-0 0  9993
2 44645  13.2464  33.8254 4636912 320.9285  13.4357  1.89807033 49342
Epoch: 2025-12-04T10:33Z
TLE epoch observation values (Epoch: 2025-12-04T10:33:01.218Z)
Latitude
Longitude
162.01887°
Altitude
9,550.218 km
Speed
5.965 km/s
True Right ascension
02h 15m 04s
True Declination
0° 00' 00"
Sunlit
Object was in daylight at epoch
Visualization orbit readout
Latitude
Unknown
Longitude
Unknown
Altitude
Unknown
Speed
Unknown
Apparent Right ascension
Unknown
Apparent Declination
Unknown
Sunlit
N/A
Visualization observer readout
Local Sidereal Time
12:31:17
Azimuth
Unknown
Elevation
Unknown
Doppler factor
Unknown
Orbital elements
Apogee altitude
33,956.369 km
Perigee altitude
8,400.766 km
Semi-major axis
27,556.704 km
Eccentricity
0.46369
Inclination
13.2464°
RAAN
33.8254°
Arg. of periapsis
320.9285°
True anomaly
39.34038°
Mean anomaly
13.4357°
Eccentric anomaly
24.41882°
Mean motion
0.47446 °/min
Orbital period
758.75 mins
BSTAR
0
Loading maneuver chart data...
Computing Atmospheric mass density...

Documentation

Showing up to 5 results
|